GFSWCAN_2pvu_pres_099.txt.gz
Presure
347 340 333 353 320 327 343 334 322 306 295 281 275 268 265 262 264 278 289 278 293 278 272 280 274 267 272 267 250 250 246 242 242 246 245 242 245 244 260 260 261 264 278 304 302 311 346 397 371 368 331 324 320 321
338 335 336 314 327 310 335 322 307 295 282 276 266 265 260 262 280 280 275 269 289 264 257 259 261 258 253 253 256 252 247 241 242 242 254 257 265 260 257 261 282 287 282 295 310 368 380 360 360 326 311 317 315 307
358 336 324 356 316 337 322 306 294 282 276 266 263 257 258 264 286 277 269 270 274 270 256 265 253 249 257 257 257 259 258 260 259 258 263 255 257 259 282 282 271 290 288 292 350 344 373 335 349 316 302 297 303 288
335 335 339 320 320 321 306 293 282 277 268 265 256 258 261 288 277 272 265 261 270 275 263 255 258 262 260 255 254 262 262 257 254 255 257 274 285 279 274 276 288 268 293 338 335 326 355 328 326 302 301 297 292 286
330 329 312 311 320 307 293 282 276 269 267 256 257 259 259 273 269 275 261 266 262 260 259 256 259 260 260 255 258 257 256 258 268 281 271 274 270 261 285 281 296 290 361 333 315 312 325 318 314 296 288 290 284 290
324 331 310 319 308 296 283 276 270 269 259 257 257 259 256 276 269 265 260 262 267 266 255 260 262 268 266 265 270 275 270 265 271 266 264 257 281 277 289 295 299 313 343 320 302 302 317 304 314 292 282 289 282 284
333 322 327 309 298 285 279 269 270 264 257 257 256 256 255 287 275 267 260 259 256 260 256 254 257 257 258 261 258 263 269 267 266 269 274 271 281 289 293 293 306 349 341 314 296 291 309 303 287 307 280 290 274 283
357 314 312 302 291 281 272 270 266 259 256 256 255 254 256 286 279 272 267 263 260 259 258 259 258 261 261 269 267 264 264 256 265 280 287 291 285 292 347 362 352 334 331 319 299 285 282 288 297 286 290 293 280 272
311 316 305 294 283 278 269 269 261 257 255 256 256 254 254 277 277 276 269 265 264 261 257 259 263 267 268 262 256 252 267 284 289 287 283 287 371 362 358 351 339 327 321 331 317 285 277 283 293 280 283 281 295 291
308 311 298 290 280 275 268 267 259 256 257 255 254 251 255 269 270 269 265 265 265 269 264 264 265 257 258 263 268 265 281 284 283 310 463 480 472 360 340 342 330 327 311 322 322 305 287 275 277 284 267 279 271 248
310 303 294 286 279 270 266 264 260 256 257 255 250 250 253 258 263 274 271 268 264 264 264 262 258 262 271 273 276 274 284 287 392 446 441 433 439 427 335 325 320 312 294 310 319 318 298 280 275 279 277 281 280 268
307 296 293 282 279 269 266 261 264 258 254 256 252 254 254 258 259 258 263 264 261 259 255 261 265 267 268 270 277 281 303 426 422 429 428 428 397 386 339 314 321 338 336 331 326 332 326 307 287 286 263 274 277 279
301 295 290 282 278 272 266 266 263 257 256 255 252 256 255 254 256 259 259 256 259 263 266 265 262 265 280 280 277 354 407 409 376 373 363 358 354 348 350 341 328 322 326 333 342 353 336 337 270 298 285 284 287 259
297 293 290 283 277 276 269 267 262 257 257 255 255 251 253 250 249 251 260 267 268 259 263 262 269 274 283 292 359 382 367 359 347 340 333 336 336 331 323 319 321 322 325 329 300 337 334 328 328 325 297 280 270 262
299 293 290 283 279 275 271 269 263 258 256 256 256 256 256 261 264 261 258 257 258 263 263 270 277 282 299 357 394 380 351 341 333 327 332 329 318 310 308 296 301 304 302 305 305 302 296 285 271 263 262 259 259 257
298 292 290 284 281 276 270 271 266 263 262 262 258 256 260 260 262 260 259 263 266 266 269 276 286 299 354 388 358 345 343 333 331 331 320 306 308 297 287 293 279 278 275 276 275 269 265 264 260 258 254 250 253 261
301 294 290 284 283 280 272 266 265 262 259 258 257 257 256 257 260 261 261 258 267 274 277 278 296 356 381 361 344 340 333 330 332 315 300 298 287 275 286 272 275 272 269 267 261 259 259 257 247 249 258 241 251 249
309 300 293 285 282 282 277 271 263 264 259 261 259 260 259 259 265 261 265 270 272 275 274 291 345 376 364 347 336 333 324 327 307 297 292 302 277 270 280 273 265 265 258 258 251 249 246 255 237 246 249 247 225 243
310 305 296 295 289 279 276 274 273 268 266 265 267 266 264 268 270 272 271 266 281 282 291 318 371 373 353 334 326 329 322 306 296 297 297 283 261 267 273 258 261 255 250 247 249 254 247 248 244 239 238 251 258 257
311 309 305 298 294 290 286 281 279 274 268 270 270 271 272 273 276 272 274 281 281 293 302 340 363 341 347 314 332 314 315 295 300 291 276 274 273 259 260 254 256 249 249 239 248 242 239 236 245 245 236 234 252 245
315 308 306 300 292 289 287 280 279 278 277 277 276 281 283 280 279 280 283 285 295 303 348 349 352 332 337 335 312 302 299 297 287 267 278 265 261 256 256 238 250 241 247 239 244 236 244 240 236 240 242 239 237 249
319 317 309 306 299 294 291 287 285 285 287 287 285 286 285 284 286 285 293 298 308 331 342 365 328 334 311 318 275 300 290 275 268 276 261 260 255 237 245 248 242 239 246 235 240 239 236 232 228 223 238 240 237 245
323 321 317 312 309 305 300 299 296 295 293 289 288 291 293 294 297 298 307 322 338 346 337 339 327 303 316 326 305 288 270 270 270 260 250 254 239 243 247 244 245 246 237 238 239 238 240 248 248 232 237 234 235 252
325 319 317 315 310 304 305 301 299 298 297 296 297 297 300 302 317 326 330 356 340 323 356 332 336 312 325 307 286 262 265 271 261 250 252 238 242 244 238 242 238 241 236 239 237 234 230 242 249 240 248 235 239 245
332 328 321 318 316 312 310 309 309 308 309 311 313 320 322 324 337 351 345 325 321 353 299 339 315 317 300 281 276 264 266 262 252 253 246 245 242 237 240 247 238 238 241 238 236 234 236 233 234 242 257 252 256 257
330 331 329 328 326 325 325 323 324 322 320 319 321 330 341 338 334 324 316 321 352 325 339 329 315 296 285 274 269 270 263 250 250 245 244 244 238 244 238 239 236 239 240 233 237 232 234 237 231 239 240 244 257 260
321 320 323 320 316 318 320 319 323 328 336 338 331 327 324 322 316 308 315 333 333 334 323 310 317 288 280 262 269 265 261 251 248 244 247 247 231 245 232 242 240 238 236 240 235 238 233 240 237 237 245 241 257 252
328 332 335 336 336 337 338 334 331 326 323 320 319 316 315 312 307 313 332 331 327 317 295 307 292 278 273 259 267 261 256 250 246 245 243 239 226 243 240 241 241 241 239 240 235 238 236 240 244 245 247 247 261 249
335 332 333 326 328 326 323 326 326 325 319 315 309 308 306 304 316 339 336 328 325 300 311 302 286 274 272 261 265 255 249 248 239 244 245 237 235 241 247 243 241 240 240 238 241 241 241 239 239 248 248 249 243 258
317 312 311 314 314 312 313 315 314 310 311 307 301 302 303 318 326 333 333 323 301 301 311 301 285 272 272 265 265 259 249 247 240 242 244 244 242 247 244 242 241 242 242 237 238 242 243 243 243 245 246 249 248 261
311 316 321 314 305 307 315 316 309 309 311 308 303 299 307 321 320 324 325 303 294 300 308 299 283 274 268 268 264 257 263 253 247 244 246 243 240 248 248 245 241 242 242 239 241 247 239 246 243 243 245 244 258 250
298 307 322 319 314 313 320 320 313 307 313 316 309 303 301 317 327 321 312 301 296 305 301 307 285 276 268 265 274 254 261 260 253 250 247 246 249 252 253 253 247 243 235 242 248 245 245 241 242 247 239 251 259 238
291 298 296 296 302 312 328 337 330 305 300 314 323 315 299 303 316 326 323 297 309 307 310 300 296 280 277 262 268 274 257 259 261 255 250 247 245 247 253 255 253 246 247 247 248 242 244 249 241 245 246 261 248 263

GFSWCAN_2pvu_pres_105.txt.gz
Presure
367 393 364 354 345 346 341 332 330 343 294 350 340 332 323 316 311 299 290 282 278 274 271 266 267 261 297 289 281 279 279 272 263 255 254 247 250 241 241 247 245 243 242 242 246 250 252 259 261 274 292 313 371 361
376 369 359 336 342 334 328 325 354 367 349 338 324 315 313 309 296 286 277 274 267 269 268 258 282 284 277 278 284 275 254 244 258 256 248 249 248 250 238 240 246 245 243 247 253 254 262 273 288 298 302 358 338 332
364 350 337 345 345 333 347 341 351 297 336 324 317 311 307 293 285 277 272 262 270 264 261 300 279 276 270 281 280 258 257 259 256 248 243 248 252 248 248 252 252 253 253 254 260 273 274 291 292 307 353 331 320 309
345 338 333 325 334 324 341 328 323 333 321 314 310 306 293 280 272 267 258 256 259 260 278 285 274 276 276 273 266 264 257 259 258 255 252 248 250 249 248 248 251 253 261 270 271 288 281 286 304 353 320 308 295 288
365 338 325 333 312 340 321 350 335 328 315 308 301 287 282 280 268 256 257 258 256 278 272 276 258 268 268 271 267 259 256 249 257 262 261 257 254 251 257 258 267 267 265 269 290 277 275 299 350 331 295 294 282 282
351 340 339 322 343 323 339 328 326 312 299 290 288 286 268 256 256 261 255 252 280 280 270 271 270 263 261 264 263 258 257 255 254 251 251 255 261 262 259 266 270 267 285 276 274 270 285 295 328 313 290 283 272 275
339 336 317 335 312 325 302 315 308 302 294 283 277 268 259 256 258 254 251 271 270 269 261 258 263 257 252 252 255 255 251 253 258 260 259 260 262 262 260 272 282 280 272 266 269 287 281 356 321 307 283 285 270 276
331 329 320 323 304 308 309 302 301 295 282 273 267 264 258 257 254 254 276 266 267 269 265 262 259 255 252 252 254 253 258 266 263 262 263 271 273 274 267 281 278 269 277 285 285 275 303 333 309 302 287 280 274 267
308 297 317 317 309 305 301 297 291 281 275 269 266 258 256 256 256 261 271 265 263 259 262 264 262 261 263 264 255 253 261 266 266 263 265 265 276 286 273 270 275 281 285 280 273 300 336 317 307 295 295 280 279 270
298 307 318 314 303 303 294 287 282 278 271 267 264 258 252 255 271 272 263 262 259 257 258 257 258 256 254 257 256 255 257 263 267 275 281 276 273 278 279 282 283 287 279 279 378 335 315 330 309 295 291 281 281 272
319 309 310 301 301 292 286 280 280 272 266 263 255 253 254 256 275 267 265 261 254 252 256 257 257 256 260 258 259 262 267 275 275 277 264 276 284 291 297 291 331 323 376 368 363 323 312 310 296 303 289 273 279 273
311 309 305 299 292 287 280 278 273 266 263 256 253 255 254 282 276 264 263 261 261 259 261 258 259 262 265 268 270 274 275 270 262 273 291 304 420 463 466 464 418 380 360 355 348 313 303 298 300 296 289 286 283 278
298 308 299 294 290 280 277 274 268 265 264 255 253 255 253 256 263 266 265 267 268 271 272 267 265 266 271 272 271 264 260 258 282 301 409 401 428 433 435 431 377 352 351 343 334 310 303 295 290 285 289 284 295 279
301 299 297 290 283 276 274 269 266 260 257 253 252 251 250 250 271 279 283 276 270 267 267 266 268 270 269 263 263 256 268 286 308 393 371 375 387 389 362 346 343 343 339 326 322 320 301 279 291 275 274 258 276 294
299 296 291 287 280 275 270 267 262 260 252 253 253 250 251 253 264 265 268 269 270 270 271 266 257 258 263 265 270 274 286 357 367 348 354 344 332 324 320 320 317 322 323 319 310 294 283 295 289 290 299 291 278 281
298 295 289 283 276 274 270 265 261 258 254 255 255 253 252 251 263 263 263 261 262 259 259 259 260 257 261 259 272 287 365 356 357 337 339 328 323 318 313 312 314 332 331 326 327 330 322 334 330 308 286 290 277 264
298 289 288 282 279 275 267 265 263 256 256 253 252 255 255 250 251 254 257 257 256 254 252 255 250 258 268 274 282 392 357 344 329 326 327 320 320 322 324 323 317 318 321 327 337 357 390 356 353 295 274 264 255 250
294 288 286 281 279 276 268 264 264 259 255 253 253 254 254 252 253 256 254 253 252 254 257 260 260 267 270 279 382 375 344 330 323 337 316 321 320 314 311 303 303 312 318 318 299 288 283 274 264 259 250 255 256 246
291 289 285 282 278 276 272 266 264 264 256 254 253 253 254 255 255 253 255 255 254 257 258 267 265 265 273 284 379 345 338 331 335 325 320 323 314 307 306 308 299 287 279 274 267 265 263 246 252 253 240 248 253 249
292 290 285 283 280 276 275 270 269 266 261 258 257 256 257 256 255 255 254 251 258 262 261 261 265 279 281 310 356 341 344 335 338 318 309 305 304 296 285 281 269 268 259 266 263 251 253 248 254 243 250 247 246 245
293 292 273 287 281 278 275 273 268 267 263 264 261 259 257 256 253 251 255 260 259 262 262 266 276 284 290 351 325 328 328 337 320 306 299 270 286 276 272 264 267 254 267 254 250 250 248 255 228 247 246 238 241 246
304 299 286 292 281 284 280 274 268 270 269 266 262 263 259 256 259 258 262 261 261 263 264 270 284 290 298 365 346 313 317 332 309 298 299 277 279 275 260 271 256 265 256 251 244 255 253 228 244 242 238 242 256 246
312 295 297 294 288 288 282 281 277 273 269 271 270 269 267 267 265 266 264 264 266 271 273 285 288 288 300 349 345 335 314 329 306 297 296 281 267 270 262 261 257 254 254 243 251 235 245 242 243 238 242 234 233 234
305 302 293 292 285 287 291 286 283 281 280 278 275 274 272 269 268 268 269 271 273 279 282 291 292 293 305 339 347 303 315 335 309 291 300 274 263 263 270 253 250 252 242 245 237 240 242 242 239 238 238 235 235 238
308 308 304 299 295 293 293 287 286 284 283 283 282 282 278 278 277 280 283 283 283 288 296 295 295 301 315 339 341 324 323 337 311 297 265 279 254 265 257 247 249 246 244 241 237 244 242 242 240 241 234 240 238 240
317 315 315 305 298 307 305 302 299 297 295 292 293 293 293 294 292 289 288 291 299 302 302 300 307 326 340 339 328 324 293 332 310 300 270 277 263 262 256 248 246 247 247 240 237 241 244 243 241 244 239 239 242 245
327 327 327 326 324 315 317 315 311 308 305 303 300 296 295 294 296 301 304 306 308 311 321 333 346 346 333 336 316 337 332 320 293 299 266 270 267 260 254 248 244 246 246 239 238 242 240 241 243 242 247 250 245 246
340 337 333 328 327 326 322 321 317 312 311 310 310 309 309 308 309 306 310 324 330 346 346 343 332 323 325 329 317 337 308 325 295 303 270 271 267 259 255 250 244 245 244 240 239 238 241 242 243 248 249 250 248 241
343 339 337 332 329 327 327 320 317 318 317 316 315 314 314 319 329 328 334 345 337 326 321 316 317 311 334 325 327 338 314 299 300 274 276 275 268 259 254 252 246 245 245 244 241 244 241 244 240 244 252 251 259 261
332 334 330 327 327 328 332 332 331 332 333 330 327 325 324 329 338 339 331 328 316 312 312 310 337 342 341 326 331 326 318 316 305 277 276 276 267 261 254 253 253 250 251 250 250 251 245 251 246 248 251 253 251 254
329 323 329 335 328 332 336 338 338 337 339 339 339 340 334 329 326 318 314 313 309 304 305 321 335 329 329 334 334 327 315 313 306 293 263 274 267 260 254 254 253 251 251 252 253 253 252 251 251 251 248 251 251 254
312 313 317 314 313 314 318 321 319 321 333 334 331 326 322 319 312 302 303 303 304 301 321 324 327 325 324 326 322 320 311 306 306 293 278 273 269 265 260 254 253 252 250 250 249 252 252 251 251 253 254 253 259 261
302 304 309 312 313 312 314 313 306 302 299 304 302 299 301 304 301 299 304 295 300 316 319 328 331 325 323 326 311 314 315 307 300 298 271 269 272 269 265 263 257 255 254 252 251 251 251 255 258 258 261 267 265 262

GFSWCAN_2pvu_pres_111.txt.gz
Presure
329 326 327 327 325 314 311 313 310 314 310 309 311 318 352 340 342 342 343 340 333 323 311 327 324 317 310 307 310 291 265 274 282 280 279 272 284 280 273 269 280 262 257 247 248 246 237 243 241 238 241 243 242 244
321 315 313 316 310 309 319 321 316 310 312 304 303 310 310 345 331 351 397 340 324 319 315 312 308 308 302 323 286 273 284 282 280 275 268 263 281 268 264 268 258 256 251 242 240 242 243 240 239 236 243 243 248 254
308 310 308 309 318 318 320 318 312 306 298 303 306 304 339 346 344 334 331 324 323 315 307 307 308 295 289 285 283 279 277 277 269 261 267 277 272 263 259 253 248 246 247 244 240 238 239 240 243 242 248 253 265 279
306 307 313 321 365 358 343 355 308 315 309 306 294 340 345 330 323 320 321 317 311 308 296 293 286 278 276 276 275 273 268 266 261 278 283 277 270 259 253 250 247 242 246 243 242 244 246 247 247 246 257 265 283 291
309 325 337 347 348 380 344 323 327 318 316 295 344 345 325 320 317 313 312 301 295 285 280 276 276 274 271 267 265 262 260 289 287 281 274 264 266 255 247 247 241 243 244 242 244 245 248 245 247 258 268 283 281 292
337 335 331 336 325 319 320 317 312 321 293 355 342 326 319 314 306 299 289 285 280 278 276 272 270 269 269 272 282 281 267 276 269 279 272 263 261 254 248 250 250 242 243 243 241 244 245 255 263 269 278 272 292 288
331 332 331 325 324 320 311 309 344 294 339 332 322 311 303 298 291 283 278 272 270 268 266 267 259 271 267 268 271 268 271 279 266 262 258 254 251 252 250 248 250 246 246 247 250 259 256 261 267 275 270 280 282 275
325 326 320 325 319 328 302 329 296 328 326 319 303 296 294 283 279 271 267 267 267 266 266 279 287 276 268 264 265 269 272 267 261 260 258 260 256 252 249 247 252 255 256 254 255 259 261 269 272 276 262 274 276 271
325 320 337 324 310 319 325 333 353 327 315 297 296 292 281 274 271 265 267 264 262 263 269 274 279 264 267 265 263 259 259 256 259 253 254 252 251 249 258 258 254 252 255 260 264 267 273 269 278 259 268 273 268 273
323 334 322 314 321 317 344 333 317 310 303 295 292 282 273 270 267 266 262 258 263 257 261 264 276 264 257 264 264 257 257 259 257 259 258 257 256 253 254 256 260 265 270 272 269 267 274 280 261 268 269 267 262 304
328 329 318 312 317 344 326 314 305 301 291 290 280 273 272 267 262 255 255 257 252 268 275 274 266 263 263 262 262 258 254 250 252 256 252 253 255 258 261 265 267 269 272 276 280 282 280 267 270 269 269 273 261 312
331 305 324 319 337 317 311 301 300 292 281 277 275 267 261 258 255 253 253 255 270 266 262 260 258 252 256 252 250 252 251 253 253 256 256 258 263 266 270 275 279 284 282 280 279 271 274 274 275 275 271 264 265 311
325 327 314 320 320 307 304 297 288 281 280 276 270 268 262 250 252 250 248 266 266 262 262 256 257 255 254 256 254 259 257 260 262 263 265 270 278 283 277 280 294 305 447 428 320 306 298 290 285 274 270 275 317 303
319 318 314 317 306 307 298 284 281 278 269 268 258 253 253 253 250 252 260 261 260 263 259 260 261 259 256 256 254 256 257 260 266 273 280 280 277 285 303 419 461 455 446 439 423 401 380 368 353 336 330 317 302 296
310 303 309 305 301 290 283 276 278 276 266 260 256 251 254 250 249 253 257 262 260 259 257 257 252 249 251 255 258 263 271 272 272 267 273 279 325 362 356 366 391 405 407 401 384 369 355 340 336 315 313 326 300 290
305 303 303 296 286 283 280 273 267 264 261 258 257 257 246 249 252 256 259 262 263 259 257 261 257 252 261 270 272 272 269 265 266 269 276 330 366 340 329 352 346 355 362 358 351 345 331 343 313 304 304 304 314 291
297 299 293 287 284 280 276 273 266 260 259 258 259 252 249 254 255 271 262 257 258 257 256 258 264 271 270 271 267 262 262 259 269 287 359 351 338 346 326 312 328 345 337 335 336 324 330 330 303 299 298 297 294 296
295 294 290 285 281 278 271 267 265 262 258 257 256 248 252 249 269 273 267 267 263 263 270 274 269 269 260 258 259 264 256 270 273 363 350 333 324 329 330 330 318 307 317 327 322 328 328 324 307 299 299 298 276 264
291 293 288 284 279 275 269 263 263 262 257 254 248 248 250 250 249 249 250 265 268 264 261 261 258 256 256 253 261 257 266 267 295 353 326 322 318 312 324 322 321 323 323 317 311 300 305 320 325 304 290 296 283 281
289 286 284 282 277 273 270 267 263 257 259 251 247 248 247 249 249 249 248 253 258 258 257 254 253 253 251 255 260 260 267 277 359 352 329 315 307 320 310 309 310 304 304 312 318 322 337 352 369 302 312 281 291 300
290 282 281 282 275 273 270 266 262 257 258 254 251 247 249 250 249 251 251 248 247 248 251 254 255 253 257 254 261 263 269 285 351 350 336 325 303 308 308 295 302 299 300 299 298 301 307 313 321 324 319 309 291 271
288 283 280 283 274 273 271 267 263 260 261 259 256 251 250 251 251 250 249 250 252 252 252 251 253 257 256 256 262 262 271 283 306 349 341 342 311 301 307 299 301 299 292 288 287 286 285 284 283 277 269 258 249 247
295 287 280 285 280 277 268 270 266 261 261 257 256 256 254 253 251 250 252 252 252 251 253 256 260 261 257 262 265 270 273 284 304 346 339 339 310 319 300 301 299 291 285 277 277 272 267 260 257 253 254 246 242 250
294 291 288 287 281 278 277 272 270 265 264 262 262 261 260 258 257 254 253 254 255 256 259 260 262 262 263 262 271 271 274 290 301 300 335 334 314 314 303 300 292 286 276 273 265 264 257 255 252 251 255 246 240 240
296 297 293 288 289 283 278 274 273 272 271 266 263 261 258 260 262 262 262 261 262 263 262 262 263 266 269 272 273 278 286 293 297 299 319 328 329 315 304 302 290 279 265 267 255 264 257 252 249 248 251 241 245 240
304 291 297 299 288 285 285 279 279 276 274 272 273 273 272 271 269 269 267 268 270 270 271 272 273 275 275 280 284 283 294 292 300 305 302 333 321 327 303 306 292 278 269 270 261 262 259 254 252 247 248 241 240 242
307 304 299 290 297 292 291 289 287 283 279 278 277 276 277 275 273 275 274 274 275 276 280 282 282 284 285 284 293 301 295 298 305 309 306 326 331 313 324 309 303 284 269 265 263 263 261 251 255 251 246 247 245 241
316 312 311 285 295 283 296 297 297 286 283 286 288 284 283 284 283 284 285 286 287 288 287 287 287 290 296 302 300 301 306 308 313 321 323 329 331 322 309 319 326 300 278 269 268 265 258 256 254 253 252 251 251 250
298 307 308 326 320 306 308 303 294 296 301 296 291 291 291 292 291 290 291 294 296 298 302 304 308 306 305 311 317 321 343 348 345 336 333 329 327 323 316 312 317 323 310 289 272 269 269 268 258 255 252 250 248 251
351 348 348 340 335 332 332 332 327 319 317 315 315 315 313 309 309 307 310 315 315 313 311 312 317 318 330 344 346 340 336 335 331 328 324 331 321 316 323 322 311 317 319 312 304 287 273 273 269 263 260 258 258 258
346 348 348 349 352 355 349 345 343 340 336 333 330 326 325 323 322 320 321 321 322 319 324 328 332 338 337 328 322 317 314 317 316 313 314 328 325 314 325 320 317 314 311 310 303 300 295 279 283 270 265 263 262 262
331 329 331 332 336 335 334 335 335 335 336 336 336 338 336 331 328 328 332 331 328 322 325 332 327 322 319 314 311 308 306 311 329 333 331 330 331 318 322 325 309 311 312 306 300 304 304 298 283 284 276 269 267 266
307 314 320 324 329 330 336 336 332 331 333 331 332 335 335 335 331 333 338 339 340 339 337 325 318 313 310 311 307 307 307 310 325 330 339 338 332 326 324 323 315 310 310 306 299 300 307 308 298 289 286 283 278 274

GFSWCAN_2pvu_pres_114.txt.gz
Presure
354 351 348 347 345 346 347 348 351 357 359 351 337 328 323 322 326 323 354 352 349 346 335 333 339 210 264 362 349 327 326 307 305 299 297 292 298 301 291 274 272 275 299 277 286 266 257 258 254 254 245 243 244 244
334 334 332 332 332 331 336 337 332 324 319 316 317 316 313 318 374 359 350 349 332 328 333 317 318 326 335 332 323 316 311 293 292 291 288 293 295 279 266 270 296 278 269 288 264 258 258 256 252 244 244 244 242 239
322 322 325 320 325 322 320 314 309 309 307 306 303 307 367 354 341 338 338 319 320 323 314 298 319 318 316 308 310 304 290 288 290 285 294 265 280 272 277 269 275 271 274 260 252 253 249 244 244 244 244 244 243 242
317 316 314 311 308 308 307 311 310 314 309 304 296 306 314 341 321 320 328 327 323 323 313 322 307 303 293 299 283 288 287 280 268 260 268 283 268 261 269 272 263 263 260 256 253 251 247 245 240 239 240 245 248 247
309 311 311 309 313 318 314 313 309 308 300 297 299 305 336 321 334 355 385 342 332 319 311 310 306 305 298 284 279 285 275 275 280 278 275 264 255 269 265 261 259 259 251 249 247 246 244 243 246 246 250 246 250 261
306 307 316 320 361 327 307 302 298 295 296 306 296 329 334 332 331 333 337 323 310 309 310 293 286 282 284 284 277 278 274 272 270 265 258 278 273 270 258 258 257 255 253 247 244 245 246 248 246 246 245 256 260 270
311 338 366 338 338 347 344 307 308 304 309 293 336 336 327 319 321 312 298 304 296 291 282 277 279 277 274 272 270 269 269 265 267 284 286 271 265 266 259 253 261 248 251 245 246 244 245 246 245 248 259 257 265 276
337 348 343 333 327 309 313 314 314 302 312 343 333 318 314 311 301 295 288 281 280 279 276 274 271 267 266 267 270 271 276 274 274 269 267 271 259 256 261 262 258 252 253 252 248 249 248 247 252 258 256 262 271 271
336 337 323 319 317 317 311 319 288 330 343 326 312 310 312 294 285 282 278 276 275 271 267 266 269 275 275 270 266 266 267 274 269 267 267 270 269 266 259 254 254 252 252 250 249 253 258 257 256 257 264 272 271 268
333 323 319 316 310 305 322 295 327 333 323 314 311 302 290 281 279 278 271 266 267 266 269 263 273 266 269 263 259 263 272 271 269 262 256 255 257 260 259 257 255 251 251 258 262 256 255 257 264 271 265 265 278 260
324 316 322 321 306 323 291 325 328 321 313 306 289 282 280 276 275 268 264 262 267 281 292 278 266 260 262 263 262 263 262 262 258 257 259 256 256 254 254 254 256 261 258 258 258 262 265 266 264 268 273 276 270 262
329 313 307 322 323 335 345 334 315 309 305 286 283 280 271 268 264 261 256 266 262 263 268 272 274 270 258 260 274 261 260 260 258 258 257 260 258 258 258 260 262 263 265 267 269 269 268 270 272 276 275 265 261 263
316 309 327 321 332 336 326 315 306 303 284 281 275 270 264 259 259 256 263 256 262 260 265 274 264 263 264 264 262 259 256 254 253 253 254 258 261 265 269 273 275 280 283 286 289 283 276 275 271 266 262 260 265 265
317 317 320 315 328 323 309 297 296 284 278 271 266 258 260 260 255 256 253 254 271 274 267 267 264 253 255 252 253 253 254 258 258 262 265 265 267 276 281 278 284 295 330 489 474 452 430 349 305 285 279 275 280 278
326 319 342 323 319 306 294 293 287 277 272 266 265 260 258 254 254 252 254 269 265 262 262 260 258 258 258 257 259 255 259 261 262 268 277 279 268 274 284 322 369 373 443 450 440 426 406 400 389 368 346 319 304 300
325 328 315 313 301 296 292 286 279 276 270 260 261 260 256 253 252 252 259 263 260 261 260 257 254 257 254 251 252 257 261 275 279 273 266 268 280 303 366 347 340 366 381 404 405 392 381 373 362 354 343 331 325 318
319 315 309 301 294 290 287 281 276 269 269 268 261 256 255 253 254 255 259 261 258 260 256 260 257 259 259 258 267 277 276 269 263 264 257 290 363 351 343 335 324 331 343 351 362 357 350 343 335 323 322 325 314 320
309 303 300 295 286 282 282 274 268 267 260 257 255 256 253 252 252 252 258 258 259 263 264 260 259 263 266 270 274 265 260 263 259 270 272 369 347 336 331 335 339 313 328 331 338 338 343 322 315 320 306 302 308 296
298 299 294 292 286 278 276 275 272 268 262 259 257 260 249 248 253 262 266 263 261 260 264 264 270 272 276 263 259 256 254 261 265 272 316 354 337 322 327 322 326 326 314 302 311 320 321 304 330 314 302 296 296 298
295 292 288 284 281 274 269 266 264 261 261 258 260 249 249 250 250 273 267 259 260 272 272 268 266 261 262 259 254 251 255 261 268 271 302 339 331 317 315 311 301 302 312 315 318 323 318 307 326 322 304 298 288 300
290 286 285 281 278 277 273 263 262 261 259 258 255 249 248 254 254 252 250 249 252 256 263 263 259 256 257 257 251 250 252 262 262 273 303 348 331 319 307 299 312 291 301 301 301 305 317 327 340 339 318 314 277 285
292 287 283 278 279 274 272 269 266 263 261 258 257 249 250 251 249 251 251 251 252 253 250 248 248 251 252 250 251 257 257 262 271 274 292 360 350 326 303 305 290 298 301 292 290 296 296 300 306 312 321 296 298 298
297 289 286 283 277 273 269 271 268 263 260 258 256 254 251 249 249 250 252 253 252 251 250 252 254 252 251 253 256 261 262 265 274 274 289 304 351 332 323 302 293 299 296 290 289 289 288 289 292 295 295 294 292 291
298 293 283 285 280 276 274 269 270 266 262 258 260 257 254 254 253 252 252 252 252 251 251 251 251 251 254 259 262 265 266 267 273 282 285 294 300 345 320 311 302 300 296 288 289 283 279 279 278 275 268 263 262 250
295 294 284 285 285 277 275 274 271 271 265 262 259 258 259 258 257 257 256 256 255 255 255 256 259 260 261 265 263 264 270 277 276 284 285 297 298 300 335 313 312 302 296 290 287 281 276 272 267 260 259 255 253 251
299 293 296 289 284 286 281 275 274 271 271 269 265 263 263 261 260 260 261 262 262 261 261 262 263 264 267 270 272 272 275 279 286 283 289 298 295 304 301 327 321 313 306 293 290 282 276 270 265 264 256 251 251 248
306 294 293 296 286 284 286 284 280 276 274 273 271 271 270 269 268 267 267 267 267 268 269 272 273 273 272 273 276 280 284 286 284 289 298 299 298 304 307 308 326 323 307 305 292 289 276 274 266 262 264 264 253 253
312 308 306 274 287 296 293 284 283 283 284 280 279 278 277 276 275 274 274 276 277 278 278 279 280 282 285 287 290 292 291 292 302 304 301 303 307 307 312 317 321 325 316 318 304 300 286 268 267 267 265 264 263 255
295 304 314 306 303 295 281 292 295 290 286 289 288 283 280 284 285 284 285 285 288 288 289 291 292 294 295 297 300 308 313 310 313 317 317 322 328 328 324 322 323 324 324 311 311 318 308 298 280 268 269 267 266 266
335 339 327 328 322 316 312 310 297 298 299 302 301 299 300 300 301 300 298 299 298 299 300 302 303 304 317 318 315 317 322 330 344 345 343 344 346 341 334 329 325 323 322 322 310 310 313 319 317 292 278 278 276 274
361 346 331 322 320 323 320 321 324 325 327 322 322 323 327 320 314 317 319 320 323 325 325 322 320 320 322 322 329 339 344 335 327 321 318 321 321 322 319 326 330 322 314 315 320 320 313 316 317 315 313 310 307 305
349 354 355 357 363 363 359 361 358 357 355 349 344 343 338 336 335 334 333 332 330 329 328 324 322 332 330 332 333 331 325 317 313 310 308 309 315 321 314 315 323 330 311 317 322 318 316 315 314 311 308 306 305 305
323 326 336 344 342 340 344 344 345 343 344 342 342 342 341 338 337 339 343 341 339 337 331 328 330 332 334 335 324 318 317 314 308 308 305 305 321 327 334 339 336 335 330 318 323 325 317 311 312 313 311 305 303 303

GFSWCAN_2pvu_pres_117.txt.gz
Presure
414 388 389 375 362 363 369 371 370 370 374 374 368 357 346 342 335 335 335 339 344 352 354 360 343 340 361 355 338 261 142 343 324 314 301 345 330 333 319 314 307 301 300 297 295 291 257 288 307 282 283 272 260 253
360 357 357 357 362 358 355 353 352 353 355 354 350 344 339 335 335 330 331 334 339 350 336 322 360 355 342 323 322 346 280 328 316 322 311 312 304 301 301 304 301 291 293 285 264 300 287 277 285 278 267 255 246 247
345 344 342 339 337 333 330 332 332 333 335 336 335 335 340 351 337 327 319 320 319 310 363 332 319 310 319 330 337 180 321 306 296 299 302 308 306 301 294 291 288 289 274 259 289 271 273 281 269 260 255 247 247 244
325 327 327 327 331 335 335 340 340 333 328 324 320 319 315 311 311 311 313 319 360 341 313 308 314 318 336 333 328 333 309 299 296 303 299 298 294 289 287 286 281 264 274 276 265 282 267 257 258 258 256 246 245 245
318 317 321 319 320 317 312 309 307 307 307 307 306 306 305 307 339 348 348 331 325 314 310 310 307 319 314 313 313 311 306 299 297 292 286 291 276 281 278 264 288 271 271 266 274 261 254 252 251 247 244 245 240 248
315 310 308 305 306 301 302 302 303 302 298 297 302 310 355 328 335 335 329 309 322 304 297 310 303 291 303 304 298 296 297 289 291 288 283 281 279 263 265 271 274 271 259 263 258 257 256 253 254 247 244 243 248 247
309 308 306 305 308 309 310 307 304 301 297 296 298 328 319 323 322 316 317 320 318 304 297 316 305 300 296 289 294 295 286 277 274 266 269 256 272 263 264 270 265 267 260 265 256 248 250 246 245 246 246 250 247 245
311 311 346 311 306 306 301 300 295 294 294 296 306 319 328 336 349 353 364 345 315 314 311 295 289 299 288 286 283 277 275 269 266 270 274 273 266 258 257 272 262 261 257 256 253 252 250 248 245 245 245 250 248 256
349 332 333 323 294 292 291 294 294 301 295 323 328 325 328 326 316 313 308 302 299 297 285 287 288 277 275 270 271 269 266 270 270 284 273 286 256 276 268 266 262 257 253 259 246 247 248 250 252 249 250 249 258 255
337 328 323 328 313 304 304 300 309 292 326 331 325 327 306 300 306 297 295 293 281 280 277 274 270 269 269 268 266 293 286 281 278 274 273 271 279 270 263 262 260 260 257 257 256 253 256 253 249 251 256 260 255 259
330 306 305 307 305 310 318 296 323 341 329 326 307 298 300 295 288 287 278 275 274 269 268 268 267 265 265 277 270 262 266 276 271 267 266 270 270 272 270 265 262 260 254 254 254 254 251 254 257 263 258 256 259 261
316 309 312 310 309 314 291 333 338 319 314 301 294 296 289 277 276 270 267 266 265 263 264 265 273 273 268 261 265 260 270 272 269 266 264 258 256 257 257 257 257 258 259 258 258 258 262 265 260 260 263 263 261 260
308 308 304 307 322 307 327 336 319 312 299 294 291 285 275 268 267 263 263 261 262 261 266 272 265 263 260 261 263 263 261 262 260 256 257 259 258 259 260 261 261 262 264 266 268 267 265 265 266 266 267 265 267 269
313 318 308 324 290 325 325 315 307 295 288 280 275 269 264 264 261 262 267 269 280 288 279 268 261 264 257 257 265 264 261 261 261 258 257 256 257 262 266 269 272 278 284 288 291 291 289 289 287 286 285 279 275 266
315 321 332 337 332 326 310 302 294 282 277 270 267 265 265 262 259 262 257 258 255 260 269 267 260 259 259 259 259 258 254 256 258 260 261 263 266 275 282 280 270 273 283 334 480 477 468 455 439 420 328 286 281 272
326 325 333 321 323 313 306 294 282 279 271 268 269 264 259 255 257 256 253 263 274 271 264 263 259 256 255 255 255 257 259 258 260 262 277 279 270 268 262 296 375 363 351 377 436 433 424 418 409 402 393 382 362 320
318 322 316 311 311 303 296 283 278 271 270 267 266 261 255 254 255 250 269 267 264 261 258 256 257 255 258 258 254 252 257 265 283 274 264 262 268 279 364 360 360 349 341 354 374 397 387 379 378 375 369 361 350 344
318 322 309 307 302 299 281 279 276 272 267 264 257 253 251 255 254 258 264 266 259 260 260 259 257 258 255 259 259 263 276 276 261 256 266 270 278 358 352 355 350 340 325 334 341 350 350 351 352 347 344 340 341 329
313 315 302 301 294 291 279 278 275 269 263 258 256 249 255 257 253 259 265 262 260 259 259 262 261 257 261 265 273 274 265 258 252 257 260 272 277 349 348 336 330 325 323 316 316 325 326 331 336 328 329 323 315 313
310 305 298 298 294 286 277 277 274 265 261 260 257 256 254 252 251 253 260 262 262 263 261 262 266 265 270 271 267 265 258 250 257 254 261 272 277 342 336 323 315 308 305 317 317 312 305 314 310 322 321 319 309 308
301 297 291 290 289 283 279 272 271 268 258 258 256 257 254 247 251 255 262 266 271 270 263 266 266 264 266 263 257 257 257 255 255 260 259 271 281 322 340 319 311 303 311 290 304 307 314 317 315 298 324 315 314 300
298 294 290 285 281 279 276 274 270 266 258 255 260 257 252 246 250 254 257 256 256 254 256 258 263 263 253 249 251 255 253 256 259 261 267 274 280 295 348 333 309 309 292 304 302 298 300 305 311 318 327 334 313 312
296 292 289 285 279 273 268 273 269 262 260 261 259 260 252 251 249 256 254 255 253 251 251 251 254 255 251 250 253 255 254 256 261 264 266 274 285 287 301 341 326 306 299 301 300 289 290 292 297 301 304 308 318 334
294 291 289 284 279 276 273 269 268 265 263 263 259 258 255 252 247 247 251 253 253 251 250 252 252 253 253 254 253 251 255 260 264 266 268 277 280 287 293 301 337 316 306 299 299 291 286 289 288 287 289 289 292 294
294 291 289 286 283 283 278 274 270 266 266 265 262 263 261 258 253 253 252 252 250 251 250 250 250 252 254 255 258 260 262 263 266 269 275 275 284 288 285 297 297 325 316 305 301 294 289 286 286 279 282 278 276 274
303 298 297 284 285 285 279 276 275 271 269 267 265 262 258 258 260 260 260 258 258 258 257 256 257 258 259 263 264 263 267 267 273 274 276 279 286 286 287 295 297 300 302 316 306 302 298 287 287 285 278 275 271 265
306 301 298 298 285 281 285 280 277 275 274 271 269 266 264 261 260 261 260 260 260 261 262 262 263 263 262 263 265 271 276 277 278 283 286 289 291 290 295 301 297 299 302 300 317 316 305 301 291 287 287 281 276 271
315 313 302 295 296 295 287 282 285 282 279 276 275 272 272 272 270 270 268 265 266 266 268 270 271 272 275 277 278 279 282 286 290 292 293 293 297 307 306 302 303 304 305 304 308 314 319 314 303 298 288 287 285 277
295 314 314 313 297 296 297 295 290 287 286 287 287 284 281 282 280 276 276 276 277 278 278 278 279 281 283 286 288 291 293 296 296 298 307 320 314 312 313 313 313 312 313 315 315 314 315 323 318 315 309 303 297 289
347 330 308 320 315 306 296 295 294 293 295 297 292 289 288 287 289 291 290 290 290 291 292 293 294 293 296 300 299 298 305 311 313 319 322 323 330 337 347 346 345 342 335 327 322 318 318 319 325 322 312 310 314 319
370 360 346 337 319 317 317 314 312 309 303 299 299 301 303 301 302 304 304 304 306 308 309 310 304 307 315 319 323 325 324 326 328 333 345 340 331 323 318 320 321 325 327 327 330 330 325 323 319 319 321 319 316 314
367 367 365 362 356 343 342 342 332 333 336 337 335 334 328 331 333 331 330 334 339 339 337 336 333 330 330 330 327 321 331 331 333 333 325 317 312 309 307 308 312 319 318 312 312 321 329 324 313 312 318 322 320 317
333 344 345 349 358 363 370 368 369 369 371 369 368 368 364 359 356 352 352 349 345 339 335 333 332 331 333 332 325 323 323 328 324 319 318 312 307 306 306 307 313 322 325 329 336 336 331 331 334 321 318 322 326 324

GFSWCAN_2pvu_pres_120.txt.gz
Presure
445 437 433 399 396 375 353 357 363 371 377 387 391 392 376 365 353 353 343 337 334 328 337 337 326 317 325 333 314 325 324 206 333 337 337 338 351 329 369 352 336 330 334 341 326 336 308 292 298 300 294 285 267 266
448 441 445 382 384 412 410 422 391 385 380 381 383 384 378 359 346 347 339 334 335 332 326 330 341 340 332 339 345 358 352 355 360 167 148 334 324 303 318 338 324 333 333 324 330 311 296 295 291 290 274 261 259 275
364 363 359 348 345 353 357 359 358 361 364 367 370 371 358 354 346 332 325 324 328 325 325 318 318 354 348 350 348 339 348 333 332 176 182 330 308 298 312 330 344 341 320 317 302 287 290 286 277 259 300 284 281 276
344 343 344 346 347 343 349 351 353 350 352 354 357 353 345 344 339 326 320 319 319 317 322 333 332 338 341 351 344 325 319 342 354 316 302 307 305 302 311 315 303 301 304 294 287 283 274 280 293 267 274 279 271 257
327 327 328 328 326 323 327 327 332 335 335 337 336 335 333 328 324 322 322 315 319 325 316 306 344 324 319 316 316 320 352 327 306 266 302 304 316 315 303 296 295 293 285 283 275 261 282 269 256 280 266 258 249 251
320 320 322 321 327 333 340 341 345 345 345 343 335 327 321 323 318 325 321 309 307 300 326 311 312 312 324 325 330 306 312 308 297 301 309 308 303 297 290 284 284 283 278 259 286 277 260 276 272 257 254 252 252 247
312 314 310 308 306 307 306 305 303 304 303 302 301 301 301 300 302 299 292 295 294 317 304 306 308 310 310 313 314 325 318 295 299 291 295 293 287 282 280 281 279 263 262 275 270 258 271 266 255 253 249 246 250 246
300 299 297 295 293 294 294 295 296 295 296 297 301 304 317 304 322 330 326 323 310 314 301 294 298 305 301 301 303 313 310 300 301 296 282 279 277 273 274 268 261 269 271 266 262 265 264 255 252 253 250 249 247 245
302 300 300 299 293 294 297 298 294 293 296 301 329 333 331 320 317 315 323 306 305 309 303 306 306 309 300 301 297 296 291 281 284 281 273 278 260 273 264 261 259 264 264 267 255 259 258 255 245 251 250 248 244 246
333 335 303 300 296 297 296 293 292 291 291 311 333 328 320 320 312 306 320 298 298 294 312 303 303 299 287 287 283 281 275 274 269 263 262 261 264 269 263 255 253 257 264 261 261 255 259 252 247 247 250 247 252 251
297 302 303 296 294 290 292 293 294 300 332 327 323 334 334 338 361 329 332 308 305 299 288 293 292 276 274 271 269 268 267 265 266 269 270 263 261 256 254 258 261 264 266 264 260 256 251 255 254 252 250 256 250 250
318 293 290 293 295 292 296 284 306 324 323 319 313 315 313 312 311 311 304 292 282 281 277 272 272 268 264 264 266 276 271 268 275 270 265 265 270 271 275 275 269 260 258 256 254 256 257 256 254 255 253 252 256 254
307 304 298 298 315 295 289 335 327 322 316 303 309 304 300 296 291 281 277 272 272 270 269 267 264 264 265 267 258 253 262 271 274 271 269 262 261 260 260 260 261 261 261 261 260 260 261 262 262 262 261 259 259 260
303 306 305 328 286 320 330 324 318 306 303 300 288 284 281 277 275 272 272 269 268 266 264 259 264 265 251 253 264 260 261 265 264 262 262 260 259 259 260 260 260 261 263 264 266 266 267 268 267 269 267 265 265 263
312 301 322 296 322 334 322 314 304 296 294 280 278 272 273 269 266 265 260 263 261 265 265 263 264 256 256 259 262 265 260 256 259 260 261 259 256 258 261 265 268 273 278 283 285 288 284 289 286 283 281 280 279 277
320 320 289 320 325 323 317 304 295 291 279 271 270 270 265 264 261 261 275 286 274 265 262 260 251 260 254 252 260 260 258 255 254 257 260 260 261 274 281 275 272 273 276 283 341 372 424 464 460 453 440 437 372 342
324 342 295 322 317 312 314 297 289 278 274 274 268 263 258 264 266 260 262 264 265 268 269 267 259 256 259 258 256 255 255 257 257 258 272 279 268 267 267 274 285 375 373 354 350 368 410 409 406 405 403 399 394 389
332 316 324 320 310 312 291 285 278 278 273 267 263 260 261 260 256 255 255 261 272 269 266 260 257 252 252 254 253 256 253 257 265 279 268 256 255 263 270 282 358 357 355 340 331 343 365 369 373 376 377 373 372 366
324 320 319 310 305 299 284 278 275 267 266 262 258 257 258 259 257 251 268 262 262 259 257 254 253 255 252 257 255 259 259 274 274 264 255 255 257 260 273 344 345 338 330 324 332 325 334 327 334 346 347 347 348 347
309 310 310 306 298 289 280 278 274 265 262 258 258 256 256 258 252 253 266 267 262 259 258 257 256 256 256 257 258 272 275 272 260 256 253 257 261 264 277 304 339 326 320 321 324 320 318 313 318 315 306 331 332 332
306 306 304 297 293 284 278 271 266 261 258 264 259 257 251 254 249 253 263 260 264 263 258 257 259 260 265 269 273 270 263 259 257 256 258 256 261 269 274 292 330 331 318 314 302 310 314 316 318 317 306 321 319 315
306 300 301 293 290 279 276 273 269 262 264 258 262 257 253 251 248 247 250 257 259 260 261 263 266 268 271 266 268 261 254 251 253 256 257 258 262 269 273 287 294 340 317 309 301 292 311 301 304 313 319 325 311 313
305 300 299 295 289 283 272 274 275 269 264 261 263 254 258 256 253 249 251 255 258 260 265 260 259 258 257 255 250 250 251 251 254 257 255 260 264 266 277 277 292 292 329 314 302 300 295 304 292 293 298 303 308 314
304 302 296 294 293 284 279 276 274 268 266 262 260 255 259 259 256 250 248 253 258 255 254 253 251 250 250 251 254 254 253 253 253 255 259 263 267 269 275 276 285 289 290 300 316 301 297 299 299 289 290 287 288 293
301 300 296 291 287 285 283 275 276 272 268 264 257 260 260 257 257 253 251 250 252 254 252 250 251 253 253 254 254 252 253 253 257 261 266 264 269 276 277 277 285 290 287 292 296 318 306 299 297 295 290 290 286 281
300 299 298 293 290 287 277 278 275 268 266 265 264 262 262 262 259 258 258 256 254 252 253 253 253 254 255 257 257 257 259 261 263 263 263 271 276 276 282 286 288 289 287 293 299 292 297 313 302 295 295 287 284 289
306 300 297 296 294 290 286 281 281 277 274 272 268 266 265 264 262 262 261 262 260 260 260 260 260 261 262 262 262 263 264 265 267 272 276 278 278 281 287 289 289 290 293 300 302 297 296 298 298 312 307 298 292 287
324 312 304 299 297 295 289 287 286 282 282 277 277 273 272 270 271 270 269 266 263 262 262 262 263 263 263 265 267 270 273 277 278 280 283 285 288 292 293 295 296 307 312 309 306 305 304 303 300 300 303 311 318 307
317 323 313 307 306 300 298 293 287 285 287 288 282 278 279 280 278 275 275 272 270 271 273 273 274 276 277 278 278 280 284 286 286 287 291 296 297 297 306 311 315 315 315 313 313 311 310 310 309 310 312 311 311 320
363 338 326 324 317 305 303 303 299 297 293 289 286 283 284 281 279 281 279 279 278 280 281 283 284 287 288 287 288 292 296 303 310 308 314 319 322 323 327 327 329 337 341 343 342 343 343 337 332 326 323 319 318 318
390 391 349 343 329 320 318 313 311 303 298 298 294 298 294 290 289 290 290 291 291 291 292 294 291 292 299 302 305 308 316 332 330 329 328 327 326 334 342 340 333 323 318 316 317 318 319 322 324 327 326 325 325 327
357 377 381 385 378 350 342 334 321 321 317 312 310 309 306 302 300 300 300 301 301 301 298 306 313 325 333 337 336 336 332 328 327 323 328 332 334 333 324 317 312 309 307 305 307 316 324 329 327 323 316 317 321 324
323 323 334 352 360 371 375 368 359 347 343 336 328 323 319 326 328 331 336 337 339 345 356 356 350 346 341 336 332 331 329 332 333 329 323 324 326 320 317 316 310 307 307 308 314 317 322 322 319 318 320 327 330 330

GFSWCAN_2pvu_pres_123.txt.gz
Presure
389 448 446 436 393 383 384 369 368 374 343 335 341 354 355 358 369 379 387 403 370 362 356 350 343 322 340 340 337 331 334 338 334 333 327 313 324 322 326 337 306 324 317 308 305 305 312 318 324 330 330 324 314 300
426 448 434 423 386 396 378 365 364 361 355 354 355 350 351 353 356 350 370 376 363 344 343 356 333 330 332 334 334 337 321 331 334 315 332 336 337 336 330 328 327 363 324 320 330 326 330 336 357 341 320 301 299 294
411 443 440 436 394 379 371 351 343 343 345 354 361 373 384 385 368 366 355 361 356 340 334 345 320 338 340 326 322 324 337 333 323 322 331 336 376 353 334 210 330 326 321 357 332 327 341 354 327 310 297 291 286 285
362 361 359 361 381 392 397 374 354 376 377 380 387 382 386 385 381 355 347 341 334 329 330 322 321 317 322 329 325 319 326 335 341 349 346 353 264 323 150 224 314 321 320 338 352 355 346 314 293 290 288 281 282 289
336 340 346 355 356 355 351 348 348 350 355 362 370 369 372 362 346 337 332 329 323 318 316 319 319 320 321 323 318 338 329 335 322 335 337 332 319 321 312 310 311 312 322 318 314 301 295 293 284 280 287 273 270 278
327 324 325 325 327 336 339 338 340 349 353 352 348 350 342 339 335 327 316 309 312 313 309 307 313 312 322 320 328 329 326 315 319 363 256 312 306 307 314 314 321 312 298 294 292 283 288 278 273 281 277 265 282 271
323 325 326 323 320 318 324 326 328 333 335 338 335 329 326 320 312 308 306 304 310 308 308 312 319 316 306 323 332 316 316 331 319 309 306 311 307 308 322 305 299 291 292 282 284 280 272 270 278 266 277 274 259 254
311 311 310 308 310 318 326 333 331 321 314 315 316 315 312 309 308 305 303 304 301 302 305 310 304 307 315 321 331 314 312 325 303 308 310 321 314 295 293 291 285 280 283 281 271 264 279 267 258 279 269 256 254 245
296 292 291 292 295 296 299 301 305 305 310 314 316 314 313 307 305 294 294 294 287 304 306 308 302 299 307 310 316 309 309 330 308 289 292 289 285 283 285 279 276 273 267 261 264 276 266 258 272 266 257 253 246 248
293 293 293 294 295 293 291 293 296 299 301 300 297 297 296 294 292 294 286 288 300 299 301 303 313 305 305 305 307 315 329 315 296 286 280 278 278 273 272 274 263 257 270 267 267 263 264 259 264 258 253 249 248 248
304 301 300 298 297 294 294 295 303 325 337 330 332 331 327 312 316 315 317 312 308 301 304 306 314 299 295 293 293 287 284 283 275 272 274 277 265 255 268 263 261 261 258 259 260 267 265 259 257 258 257 250 244 242
300 297 296 292 292 293 295 297 316 323 320 326 334 331 317 311 312 313 310 320 314 313 301 296 288 283 279 278 276 272 267 265 258 259 264 263 264 265 266 260 256 255 259 261 265 265 262 260 260 259 254 256 257 252
288 288 291 291 292 286 294 326 326 322 335 326 320 318 314 311 328 308 297 294 293 293 282 276 275 269 269 266 265 262 260 262 266 263 266 264 260 266 268 270 273 272 269 266 263 261 260 261 258 257 256 257 255 254
297 298 293 299 290 315 322 322 310 323 323 323 325 335 334 329 313 295 285 286 280 278 276 269 267 264 267 280 270 265 264 267 264 263 266 264 262 259 260 260 259 258 259 260 261 262 263 263 264 264 263 263 262 261
307 315 307 284 332 331 317 308 307 310 305 303 301 299 296 290 280 279 279 276 271 265 262 264 264 268 263 258 257 251 265 265 263 262 261 260 260 259 258 259 260 261 262 263 265 267 270 272 275 275 274 272 271 270
307 312 298 322 336 318 306 306 301 293 290 294 290 283 278 275 271 269 268 262 261 263 264 262 259 257 251 252 260 258 258 256 255 256 257 258 256 255 257 261 268 275 278 275 275 278 283 285 288 284 279 282 283 282
319 301 323 336 320 312 306 300 289 285 283 280 274 272 269 268 266 265 262 264 267 266 261 263 257 254 258 261 261 260 258 256 255 253 255 260 259 274 277 264 265 270 272 368 377 365 352 351 418 426 427 432 436 425
325 312 330 327 313 303 305 298 286 283 275 271 267 267 266 266 267 267 263 264 268 266 260 251 258 255 250 255 254 252 252 253 255 257 254 274 273 266 256 252 258 267 360 345 347 331 342 349 364 376 383 391 390 378
314 323 322 319 307 302 297 286 273 271 268 264 262 266 269 266 270 268 270 265 269 268 271 267 258 257 254 252 252 252 255 255 257 258 277 268 261 255 254 267 268 276 342 338 324 328 323 335 335 336 339 353 364 369
325 318 313 310 304 298 289 279 273 267 262 258 260 264 266 259 258 257 257 268 271 267 265 262 259 254 254 253 254 256 255 258 271 276 267 262 259 258 258 260 271 278 311 334 321 320 311 320 330 325 321 324 326 336
317 310 303 306 296 290 282 274 267 264 260 264 259 263 263 261 254 258 269 263 262 260 259 257 257 256 254 254 257 260 258 271 272 268 262 258 258 261 260 259 273 278 285 302 325 314 312 298 318 312 324 329 323 323
310 311 302 302 292 283 277 271 268 263 264 261 262 254 254 258 252 256 265 264 264 261 260 262 258 255 259 258 261 266 270 272 270 259 253 251 252 259 258 264 270 273 281 291 296 320 313 305 294 311 303 303 314 324
309 304 300 299 296 284 276 275 270 267 265 262 261 258 251 254 254 248 244 252 255 256 257 257 257 260 263 268 269 268 264 265 253 249 250 252 258 256 258 268 266 276 279 284 294 291 307 313 300 295 303 299 296 293
307 305 300 295 293 289 283 276 273 270 266 265 261 261 258 254 253 250 249 253 255 255 257 260 262 265 266 256 251 251 252 252 253 253 257 257 255 258 267 264 266 276 279 287 290 291 288 297 307 300 299 293 299 290
313 306 302 298 294 289 288 280 278 275 274 265 265 261 261 257 257 258 255 254 249 247 248 250 256 257 256 256 255 252 252 252 254 255 257 262 261 263 263 268 275 279 279 285 289 291 291 290 298 295 305 297 292 289
310 308 305 300 301 296 289 286 281 273 275 278 272 265 265 263 262 260 263 262 259 256 252 252 252 252 252 254 254 253 252 252 253 260 262 262 263 268 273 274 280 282 282 287 290 290 289 292 294 299 294 293 304 299
314 311 309 305 298 296 293 290 286 280 278 274 273 269 267 265 263 262 261 262 262 263 263 262 260 258 257 258 259 260 260 263 263 262 264 267 272 275 278 282 282 285 288 293 293 295 298 303 305 303 300 297 296 296
318 323 312 309 306 300 297 294 292 286 282 281 278 274 274 271 267 267 267 266 266 266 264 263 262 262 261 262 263 264 265 266 267 273 276 276 280 283 284 286 294 301 307 307 306 308 308 309 311 307 305 305 304 303
376 331 327 311 310 306 303 300 293 291 287 286 282 277 277 276 275 273 272 271 268 267 266 267 265 267 269 271 272 276 278 278 280 284 286 285 286 293 300 310 309 313 319 321 324 323 320 319 318 317 316 316 316 314
405 384 338 341 330 314 308 307 302 298 299 294 288 288 285 283 280 280 279 276 275 275 275 276 276 277 277 277 278 283 286 288 289 289 292 296 304 308 320 336 331 331 331 333 339 344 340 334 330 328 331 336 339 337
380 394 405 356 337 336 326 320 313 310 304 299 299 297 294 289 288 289 286 284 282 282 282 284 286 287 288 288 288 291 295 298 299 295 295 331 340 336 333 328 334 337 339 333 324 317 312 311 312 314 317 318 316 314
332 335 367 387 399 399 341 335 331 324 321 318 310 308 304 298 297 299 299 298 296 294 296 296 297 297 297 296 294 294 297 313 340 340 335 331 332 328 331 332 331 327 321 315 309 306 305 305 308 315 322 323 324 326
346 346 329 319 319 354 374 387 374 345 337 333 328 316 317 316 314 312 311 309 309 308 308 308 311 311 314 322 334 345 351 349 342 339 335 331 335 333 330 324 326 321 316 315 310 307 307 305 302 302 304 307 310 313

GFSWCAN_2pvu_pres_126.txt.gz
Presure
356 359 358 402 444 425 396 383 372 409 378 363 346 332 330 314 329 338 308 316 324 322 320 327 339 344 367 353 335 321 313 310 310 312 313 309 309 309 310 298 290 287 289 292 286 284 296 273 244 298 320 327 320 320
363 358 450 460 440 399 396 369 348 349 349 315 306 303 315 316 310 301 341 338 340 351 337 387 356 354 347 343 344 330 321 316 316 316 313 307 301 295 295 297 288 297 293 294 300 336 320 316 324 316 315 319 325 332
366 467 453 419 429 389 386 367 343 355 335 319 328 325 337 346 335 334 329 328 344 349 353 370 386 376 385 343 345 333 334 331 324 321 325 321 320 327 330 334 337 333 327 325 332 336 344 339 337 328 329 330 338 346
359 464 455 436 406 388 385 380 337 342 336 333 330 334 302 344 355 343 340 345 364 326 384 402 388 353 341 338 342 337 323 320 325 330 323 327 321 324 330 332 331 341 350 176 156 340 323 321 323 335 333 336 337 305
356 373 423 449 393 374 361 359 389 350 334 355 354 348 338 361 355 363 377 381 363 362 363 343 339 340 345 333 321 320 323 326 325 317 317 327 324 339 353 362 332 327 274 328 321 318 332 344 365 365 356 312 294 287
332 342 353 362 418 415 365 356 354 361 348 349 350 349 347 359 376 414 361 347 338 328 320 316 316 319 319 320 322 320 319 317 316 315 324 344 334 339 338 324 324 322 318 317 313 318 320 314 309 300 290 285 288 286
333 329 329 340 345 352 351 348 348 349 350 357 369 389 403 390 329 324 318 317 314 314 311 310 310 313 314 316 319 313 310 312 315 330 320 316 312 314 324 317 321 317 321 310 301 301 294 292 291 284 284 286 289 279
339 332 318 325 339 339 343 348 345 341 355 342 348 333 327 327 323 313 307 306 306 307 306 305 309 303 303 310 321 311 313 306 312 310 337 321 318 311 317 308 312 305 303 295 293 290 284 284 277 276 288 279 265 272
299 306 319 338 328 320 331 333 333 333 331 329 326 321 314 311 306 302 299 298 295 298 297 306 306 301 307 337 323 313 309 320 315 321 320 322 312 316 299 295 298 292 286 284 281 281 278 272 272 277 271 259 281 267
294 296 296 297 300 308 327 313 318 314 309 308 307 304 303 303 304 299 301 302 300 294 301 298 310 300 313 314 317 314 307 319 308 304 294 295 295 292 288 290 281 277 278 281 277 273 268 271 276 264 258 279 268 258
296 297 293 293 295 296 294 293 311 313 307 303 301 303 304 302 306 299 294 297 296 298 302 296 306 303 308 309 308 306 305 321 288 289 292 285 284 278 280 276 274 274 269 264 267 273 274 269 264 260 270 270 260 256
298 296 294 293 293 336 341 309 299 294 294 301 305 306 309 298 298 294 296 301 311 316 311 303 301 298 297 303 304 298 310 287 286 279 277 277 272 272 271 270 262 256 259 263 263 264 263 263 263 260 257 260 260 255
293 294 295 291 295 310 309 321 329 326 318 306 304 300 315 302 307 314 301 311 308 307 304 294 289 286 284 281 284 279 273 270 270 272 270 265 261 257 261 267 267 264 259 256 258 264 269 266 266 264 261 260 258 256
293 294 291 288 316 319 315 321 321 320 321 319 312 310 314 308 307 306 310 303 293 293 286 283 283 276 274 273 268 267 268 264 263 270 268 266 266 263 265 267 267 269 270 271 273 274 274 275 272 269 268 269 268 264
296 292 284 313 312 317 313 326 320 312 322 318 314 318 313 298 304 293 292 289 281 281 276 268 268 267 265 264 263 265 268 269 263 261 258 262 262 260 259 259 260 260 260 261 262 264 266 267 269 270 271 271 272 271
315 282 316 334 315 312 319 325 323 325 328 329 305 310 296 290 290 288 281 276 271 268 268 269 266 271 267 264 262 264 265 264 264 263 260 259 258 258 259 261 261 262 266 273 274 273 274 274 274 278 284 286 286 282
281 314 330 328 315 309 308 302 304 310 321 323 313 296 286 288 281 278 273 269 266 267 266 268 264 257 255 259 255 255 258 259 255 254 254 258 256 257 260 261 278 270 260 259 259 259 358 360 363 361 403 440 456 444
320 327 336 319 314 308 303 301 297 294 290 284 279 281 281 274 271 268 265 267 266 263 263 254 257 254 251 260 265 262 258 255 254 254 255 259 257 264 275 270 262 256 257 259 282 352 342 334 345 359 350 370 390 396
323 336 323 312 313 304 295 290 286 277 275 271 270 269 270 267 264 262 263 265 266 263 263 256 256 258 261 259 256 256 253 253 253 255 260 257 275 275 267 259 254 255 257 278 294 313 341 330 320 340 341 335 341 360
332 332 318 309 311 295 284 277 276 270 266 265 266 264 267 266 262 264 268 269 270 264 258 255 260 255 256 257 254 254 252 256 257 257 260 275 276 269 263 258 258 263 260 276 287 296 321 330 322 314 320 337 329 330
325 318 311 305 304 291 280 276 270 268 265 265 263 269 272 278 279 278 269 272 271 269 271 270 263 260 258 255 255 253 257 256 258 258 271 274 270 264 257 256 255 259 261 269 276 287 301 306 323 316 306 311 315 331
319 310 312 306 302 291 276 272 270 268 266 260 267 269 266 261 259 260 260 272 274 271 270 265 259 256 257 257 255 256 259 262 265 270 270 275 268 255 250 251 256 257 262 270 272 285 293 302 297 309 313 304 303 304
317 309 309 308 302 293 267 277 273 273 271 266 266 265 265 262 256 253 270 272 266 261 258 253 255 261 261 258 259 260 261 266 270 265 261 263 252 253 255 256 255 260 265 265 275 284 286 291 298 296 297 304 305 300
315 313 304 308 300 291 284 278 273 275 271 267 265 261 254 255 260 255 253 256 256 263 264 260 259 258 259 259 262 265 266 266 257 252 251 251 251 254 253 257 260 262 264 272 277 282 285 284 290 292 291 292 298 300
311 306 312 307 306 297 288 285 277 271 272 270 265 264 261 258 252 253 258 258 255 249 253 256 257 257 257 260 264 265 255 255 255 255 255 251 251 251 255 262 262 263 269 275 280 282 285 285 290 291 293 292 293 297
326 314 315 306 302 303 299 289 284 279 276 273 272 266 265 264 262 260 258 256 255 255 255 254 251 248 249 251 253 256 253 252 252 251 251 252 255 261 262 261 266 273 275 279 283 285 286 293 296 296 293 296 299 302
326 322 320 316 308 308 301 299 295 290 282 280 276 273 273 269 266 265 263 262 261 259 259 261 262 260 259 259 258 256 253 255 259 260 259 261 261 263 267 273 275 279 286 285 285 290 302 308 309 310 307 304 305 307
356 331 322 316 313 310 303 305 300 295 294 291 286 278 275 277 279 276 271 270 267 263 261 262 262 262 262 262 262 261 261 262 264 265 266 268 270 276 278 280 285 285 287 288 301 305 314 314 313 315 318 317 316 313
423 364 350 328 318 317 311 309 303 302 299 296 293 290 284 283 281 274 274 276 276 274 271 265 264 264 264 265 266 266 267 268 273 273 273 277 279 283 288 289 293 291 300 308 335 340 337 330 326 323 323 324 326 327
382 410 404 400 355 329 319 313 309 307 300 298 296 293 291 288 286 282 278 276 274 274 274 274 274 273 273 273 272 272 275 277 279 280 281 286 289 291 295 298 295 317 345 343 337 334 335 338 340 338 329 321 317 315
350 348 380 407 407 384 344 331 323 316 311 305 300 296 296 294 291 289 287 285 283 282 282 281 281 281 282 283 284 284 283 287 290 291 291 295 293 295 302 330 346 337 333 331 333 335 334 326 318 312 308 306 305 308
362 353 349 341 363 396 399 369 343 334 338 325 316 312 307 305 301 298 299 297 294 292 289 288 287 287 288 289 290 287 281 297 297 295 294 305 314 329 348 345 337 333 332 331 327 324 319 314 310 306 307 306 304 302
382 370 360 355 351 341 336 374 396 401 352 335 330 329 317 314 312 302 296 305 304 301 299 298 298 297 295 292 294 293 295 298 307 310 317 328 347 349 345 336 335 333 331 328 328 327 319 317 311 306 306 303 301 300